STARLINK-1893

Last updated on Tue Nov 24 2020 00:02:03 GMT+0000 (Coordinated Universal Time)

1 46786U 20074AZ 20328.58334491 -.00278272 00000-0 -31232-2 0 9999 2 46786 53.0550 13.4274 0001434 53.2396 5.2942 15.62876546 1858

Satellite not in orbit